[Iaude] MPEC V80: 2023 VH2 [a=1.37,e=0.25,i=25.6,H=25.5]
    mpec at marsden.cfa.harvard.edu 
    mpec at marsden.cfa.harvard.edu
       
    Mon Nov  6 19:38:32 EST 2023
    
    
  
M.P.E.C. 2023-V80                              Issued 2023 November 7, 00:36 UT
     The Minor Planet Electronic Circulars contain information on unusual
         minor planets, routine data on comets and natural satellites,
         and occasional editorial announcements.  They are published
    on behalf of Division F of the International Astronomical Union by the
          Minor Planet Center, Smithsonian Astrophysical Observatory,
                          Cambridge, MA 02138, U.S.A.
			  
             Prepared using the Tamkin Foundation Computer Network
                              MPC at CFA.HARVARD.EDU
            URL https://www.minorplanetcenter.net/    ISSN 1523-6714
                                    2023 VH2                                    
Observations:
     K23V02H  C2023 11 03.50328704 10 03.103-22 26 52.98         19.92GVEV080F51
     K23V02H  C2023 11 03.52651104 09 46.966-22 17 13.90         20.66GVEV080F51
     K23V02H  C2023 11 03.52722704 09 46.478-22 16 55.88         20.40GVEV080F51
     K23V02H  C2023 11 03.53850504 09 38.631-22 12 12.76         20.20GVEV080F51
     K23V02H  C2023 11 04.52741203 58 54.049-14 42 23.93         19.92GVEV080F52
     K23V02H  C2023 11 04.53901403 58 45.378-14 36 39.87         20.59GVEV080F52
     K23V02H  C2023 11 04.55062603 58 36.700-14 30 53.36         19.86GVEV080F52
     K23V02H  C2023 11 05.43368303 48 24.733-06 46 10.58               VEV080F51
     K23V02H  C2023 11 05.44446003 48 16.106-06 40 11.02               VEV080F51
     K23V02H*1C2023 11 06.38101303 36 28.069+02 23 26.23         19.44GVEV080G96
     K23V02H 1C2023 11 06.38621503 36 23.706+02 26 32.93         19.47GVEV080G96
     K23V02H 1C2023 11 06.39143003 36 19.292+02 29 39.59         19.95GVEV080G96
     K23V02H 1C2023 11 06.39664803 36 14.922+02 32 49.16         19.52GVEV080G96
     K23V02H mC2023 11 06.42663503 35 49.751+02 50 50.28         19.05GVEV080I52
     K23V02H mC2023 11 06.42686903 35 49.578+02 50 58.99         19.40GVEV080I52
     K23V02H mC2023 11 06.42709703 35 49.348+02 51 06.98         19.37GVEV080I52
     K23V02H mC2023 11 06.42732503 35 49.168+02 51 15.30         19.06GVEV080I52
     K23V02H KC2023 11 06.53385203 34 33.22 +03 59 32.7          19.2 GVEV080474
     K23V02H KC2023 11 06.53440303 34 32.74 +03 59 52.2          19.3 GVEV080474
     K23V02H KC2023 11 06.53495403 34 32.27 +04 00 12.2          19.7 GVEV080474
     K23V02H KC2023 11 06.53550503 34 31.82 +04 00 32.3          19.5 GVEV080474
     K23V02H KC2023 11 06.53605603 34 31.35 +04 00 52.2          19.4 GVEV080474
     K23V02H KC2023 11 06.53660603 34 30.91 +04 01 12.1          18.9 GVEV080474
     K23V02H KC2023 11 06.83512 03 30 40.18 +06 57 43.5          21.9 VqEV080M38
     K23V02H KC2023 11 06.84659 03 30 30.63 +07 04 45.1          19.3 VqEV080M38
     K23V02H KC2023 11 06.86969 03 30 12.31 +07 19 11.8          20.3 VZEV080M63
     K23V02H KC2023 11 06.88789 03 29 56.82 +07 30 19.7          19.8 VZEV080M63
     K23V02H KC2023 11 06.89718 03 29 48.82 +07 35 59.8          19.4 VZEV080M63
Observer details:
474 Mount John Observatory, Lake Tekapo.  Observers A. C. Gilmore, P. M.
    Kilmartin.  Measurer P. M. Kilmartin.  1.0-m f/7.7 reflector + CCD.
F51 Pan-STARRS 1, Haleakala.  Observers J. Bulger, T. Lowe, P. Minguez, A.
    Schultz, I. Smith.  Measurers K. Chambers, T. de Boer, J. Fairlamb, H.
    Gao, M. Huber, C.-C. Lin, E. Magnier, Y. Ramanjooloo, R. Wainscoat, R.
    Weryk.  1.8-m Ritchey-Chretien + CCD.
F52 Pan-STARRS 2, Haleakala.  Observers J. Bulger, T. Lowe, P. Minguez, A.
    Schultz, I. Smith.  Measurers K. Chambers, T. de Boer, J. Fairlamb, H.
    Gao, M. Huber, C.-C. Lin, E. Magnier, Y. Ramanjooloo, R. Wainscoat, R.
    Weryk.  1.8-m Ritchey-Chretien + CCD.
G96 Mt. Lemmon Survey.  Observer J. B. Fazekas.  Measurers E. C. Beshore, D.
    Fay, J. B. Fazekas, D. C. Fuls, A. R. Gibbs, A. D. Grauer, H. Groeller, J.
    K. Hogan, R. A. Kowalski, S. M. Larson, G. J. Leonard, D. Rankin, R. L.
    Seaman, F. C. Shelly, K. W. Wierzchos.  1.5-m reflector + 10K CCD.
I52 Steward Observatory, Mt. Lemmon Station.  Observer R. A. Kowalski.
    Measurers E. C. Beshore, D. Fay, J. B. Fazekas, D. C. Fuls, A. R. Gibbs,
    A. D. Grauer, H. Groeller, J. K. Hogan, R. A. Kowalski, S. M. Larson, G.
    J. Leonard, D. Rankin, R. L. Seaman, F. C. Shelly, K. W. Wierzchos.  1.0-m
    prime focus + CCD.
M38 Harsona Observatory, Nyiregyhaza.  Observer T. Elek.  0.20-m f/3 reflector
    + CCD.
M63 RPF Observatory, Gagliano del Capo.  Observer D. Licchelli.  0.30-m f/5.3
    reflector + CCD.
Orbital elements:
2023 VH2                                                 Earth MOID = 0.0435 AU
Epoch 2023 Sept. 13.0 TT = JDT 2460200.5                MPC                     
M 336.30799              (2000.0)            P               Q                  
n   0.61288747     Peri.  341.74585     +0.86951761     -0.38676865             
a   1.3726155      Node    45.20180     +0.48967042     +0.59384090             
e   0.2532202      Incl.   25.64998     +0.06451358     +0.70552321             
P   1.61           H   25.50          G   0.15           U   7                  
Residuals in seconds of arc
231103 F51  0.1-  0.4+    231106 G96  0.0   0.2-    231106 474  0.3-  0.1-
231103 F51  0.0   0.2-    231106 G96  0.3-  1.4-    231106 474  0.4-  0.2-
231103 F51  0.1+  0.2-    231106 G96  0.0   0.1+    231106 474  0.0   0.2-
231103 F51  0.0   0.0     231106 I52  0.2-  0.1+    231106 M38  1.8-  0.5-
231104 F52  0.2+  0.5-    231106 I52  0.2+  0.3+    231106 M38  0.4-  0.8+
231104 F52  0.2+  0.7-    231106 I52  0.4-  0.1+    231106 M63  0.0   0.4-
231104 F52  0.1-  0.3+    231106 I52  0.3-  0.2+    231106 M63  1.3+  0.2+
231105 F51  0.1+  0.1+    231106 474  0.2-  0.3+    231106 M63  1.1+  0.3-
231105 F51  0.0   0.2+    231106 474  0.4-  0.2-
231106 G96  0.3-  0.4+    231106 474  0.5-  0.2-
Ephemeris:
2023 VH2                 a,e,i = 1.37, 0.25, 26                  q = 1.0250
Date    TT    R. A. (2000) Decl.     Delta      r    Elong.  Phase     V
2023 10 08    06 01 54.6 -62 19 59   0.2420  1.0316    90.8    75.6    25.1
...
2023 10 23    05 26 59.1 -55 06 09   0.1313  1.0251    99.5    73.2    23.7
...
2023 10 31    04 41 44.5 -39 59 31   0.07356 1.0281   116.7    59.6    22.0
...
2023 11 06    03 41 23.5 -01 21 31   0.04519 1.0334   157.5    21.5    19.9
2023 11 07    03 28 22.2 +08 40 01   0.04427 1.0345   167.3    12.1    19.5
2023 11 08    03 14 29.7 +18 43 51   0.04491 1.0356   173.7     6.0    19.3
...
2023 11 14    01 39 20.7 +57 03 16   0.07270 1.0440   137.1    40.2    21.5
...
2023 11 22    23 49 46.3 +68 56 33   0.1318  1.0587   119.4    54.4    23.2
...
2023 12 07    22 32 56.1 +72 02 18   0.2491  1.0955   109.9    57.7    24.8
A. U. Tomatic                (C) Copyright 2023 MPC           M.P.E.C. 2023-V80
    
    
More information about the Iaude
mailing list